Regional Weather Roundup
Issued by NWS

Home | Current Version | Previous Version | Graphics & Text | Print | Product List | Glossary On
Versions: 1 2 3 4 5 6 7 8 9 10 11 12 13 14 15 16 17 18 19 20 21 22 23 24 25 26 27
000
ASUS45 KBOU 231407
RWRCO

WEATHER ROUNDUP FOR COLORADO
NATIONAL WEATHER SERVICE DENVER/BOULDER CO
800 AM MDT FRI JUN 23 2017

NOTE: "FAIR" INDICATES FEW OR NO CLOUDS BELOW 12000 FEET WITH NO
SIGNIFICANT WEATHER AND/OR OBSTRUCTIONS TO VISIBILITY.

COZ001>005-013-030-031-231500-
...NORTHWEST COLORADO...

CITY           SKY/WX    TMP DP  RH WIND       PRES   REMARKS
CRAIG          FAIR      56  35  45 SW6       30.26R
HAYDEN         FAIR      54  34  47 CALM      30.27R
MEEKER         FAIR      52  41  66 VRB5      30.26S
RABBIT EARS PA FAIR      45  34  65 S5        30.45R
STEAMBOAT SPGS FAIR      50  38  63 CALM      30.27S
WALDEN         FAIR      50  39  66 NE3       30.34S
$$

COZ006>008-011-231500-
...WEST CENTRAL VALLEYS...

CITY           SKY/WX    TMP DP  RH WIND       PRES   REMARKS
GRAND JUNCTION FAIR      74  32  21 N6        30.11R
MONTROSE       FAIR      66  34  30 SE9       30.19R
EAGLE          SUNNY     54  37  54 CALM      30.28S
RIFLE          FAIR      60  38  43 CALM      30.19R
DELTA          FAIR      70  34  27 CALM      30.14R
NUCLA          FAIR      64  30  27 E5        30.20R
$$

COZ017>023-064>068-231500-
...SOUTHWEST COLORADO...

CITY           SKY/WX    TMP DP  RH WIND       PRES   REMARKS
DURANGO        FAIR      63  32  31 CALM      30.16R
CORTEZ         FAIR      65  39  38 NE6       30.15R
PAGOSA SPRINGS FAIR      65  29  26 CALM      30.24S
TELLURIDE      FAIR      57  29  34 CALM      30.39R
WOLF CREEK PAS FAIR      54  25  32 SW5       30.60S
$$

COZ009-010-012-014-032>034-037-058>063-231500-
...CENTRAL COLORADO...

CITY           SKY/WX    TMP DP  RH WIND       PRES   REMARKS
ASPEN          FAIR      56  36  47 SE3       30.29R
BUENA VISTA    FAIR      60  36  40 CALM      30.33R
COPPER MTN     FAIR      52  28  40 CALM      30.55S
BERTHOUD PASS  HAZE      34  23  64 S14G20    30.56S VSB<1/4 WCI  24
COTTONWOOD PAS FAIR      59  36  41 E7        30.44R
GUNNISON       FAIR      53  35  50 CALM      30.31R
KREMMLING      NOT AVBL
LEADVILLE      FAIR      50  29  44 CALM      30.42R
MONARCH PASS   FAIR      46  37  71 NE16      30.65S
SALIDA         FAIR      59  38  46 CALM      30.39R
SUNLIGHT       FAIR      48  28  46 NE3       30.50S
WILKERSON PASS FOG       43  39  87 NE10G16   30.54S VSB 1/2
$$

COZ069>075-231500-
...SAN LUIS VALLEY/SANGRE DE CRISTO MOUNTAINS...

CITY           SKY/WX    TMP DP  RH WIND       PRES   REMARKS
ALAMOSA        FAIR      59  44  57 NE6       30.24R
DEL NORTE      FAIR      63  32  30 W13       30.26S
LA VETA PASS   LGT RAIN  45  43  93 N20G33    30.56R VSB<1/4
SAGUACHE       FAIR      64  34  32 NW14      30.26R
$$

COZ035-036-038>040-231500-
...NORTHERN COLORADO FRONT RANGE...

CITY           SKY/WX    TMP DP  RH WIND       PRES   REMARKS
DENVER INTL AP CLOUDY    49  45  86 N12       30.35R
DMNS CITY PARK   N/A     48  46  93 N13       30.37S
AURORA         LGT RAIN  47  47  99 N8        30.37R
FRONT RANGE AP CLOUDY    50  46  87 N7G17     30.36R
ERIE MUNI ARPT CLOUDY    49  45  85 NE6       30.36S
BOULDER MUN AP CLOUDY    50  45  81 CALM      30.35S
CENTENNIAL     LGT RAIN  46  45  96 N9        30.37R FOG
BROOMFIELD     CLOUDY    46  45  93 N7        30.37S
FORT COLLINS   CLOUDY    52  42  69 E8        30.34R
LONGMONT       CLOUDY    55  43  63 SE5       30.36S
$$

COZ041-046-047-076>085-087-088-231500-
...PIKES PEAK/PALMER DIVIDE AND SOUTHERN FOOTHILLS...

CITY           SKY/WX    TMP DP  RH WIND       PRES   REMARKS
COLO. SPRINGS  CLOUDY    54  48  80 NE24G33   30.30R
A. F. ACADEMY  LGT RAIN  52  48  86 N20G28    30.33R
SCHRIEVER AFB  NOT AVBL
CHEYENNE MTN   NOT AVBL
ELLICOTT       CLOUDY   N/A N/A N/A E22G30    30.28R
FALCON           N/A     49  47  95 N6G18     30.34R
FORT CARSON    CLOUDY    57  50  77 NE24      30.27R
LIMON          CLOUDY    52  49  89 N13       30.29R
MONUMENT HILL  RAIN      43  43 100 N21G29    30.39R
CANON CITY     CLOUDY    64  59  82 SE7       30.24R
WALSENBURG     CLOUDY    59  57  94 NE13      30.27R
TRINIDAD       LGT RAIN  61  51  70 N9        30.24R
$$

COZ042>045-048>051-090-091-231500-
...NORTHEAST COLORADO...

CITY           SKY/WX    TMP DP  RH WIND       PRES   REMARKS
GREELEY ARPT   CLOUDY    52  42  69 N6        30.34R
AKRON          PTSUNNY   53  44  71 N18       30.28R
BURLINGTON     CLOUDY    56  53  90 N14       30.23R
WRAY           CLOUDY    57  45  62 N20       30.24R
YUMA           CLOUDY    54  43  66 N15G23    30.26R
STERLING       CLOUDY    55  43  62 N10G21    30.26R
HOLYOKE        NOT AVBL
FORT MORGAN    CLOUDY    51  42  71 N10       30.30R
$$

COZ086-089-092>099-231500-
...SOUTHEAST COLORADO...

CITY           SKY/WX    TMP DP  RH WIND       PRES   REMARKS
PUEBLO         CLOUDY    64  48  56 E16G26    30.22R
LA JUNTA       CLOUDY    64  44  48 NE22G31   30.20R
LAMAR          CLOUDY    64  46  52 MISG      30.17R
SPRINGFIELD      N/A     60  52  74 NE17G29   30.17R
$$




USA.gov is the U.S. government's official web portal to all federal, state and local government web resources and services.